STARLINK-31865, 59791

Orbit data source: Space-Track

STARLINK-31865, 59791 is a payload satellite owned by SpaceX/Seattle (US) in LEO that was launched on Sat, 18 May 2024 UTC via an FALCON 9 launch vehicle from the Air Force Eastern Test Range (AFETR). Payload-class satellites include a variety of spacecraft equipped with specific instruments for various scientific and technological missions. These include communications satellites like Starlink; space stations such as the ISS; scientific satellites like the Hubble; Earth observation satellites from companies like Planet Labs, Umbra, and HawkEye 360; GPS; miniature CubeSats for education and research; and military/defense satellites.

Loading next visibility...
Identifier
59791, 2024-093K
Orbit
LEO
Last TLE update
7 hours ago
Origin
Manufacturer
SpaceX/Seattle
Mission
Operational spacecraft
Bus & Motor
STARLINK V2M, Unknown motor
Mass
730 kg wet, ~700 kg dry
Launch date (UTC)
2024-05-18 (1 year ago)
Launch vehicle
FALCON 9
Launch site
Air Force Eastern Test Range (AFETR)
Object type
Payload
Rocket body
Debris
Shape & HBR
Unknown
Radar Cross Section
Large (>1 m²)

Expand to show TLE details & history

TLE from 7 hours ago
0 STARLINK-31865
1 59791U 24093K   25129.03529567 -.00002297  00000-0 -74005-4 0  9997
2 59791  43.0004 129.3221 0000444 249.3506 110.7298 15.27566097 56103
Epoch: 2025-05-09T00:50Z
Definitive object data (Epoch: 2025-05-09T00:50:49.545Z)
Latitude
-0.00004°
Longitude
-110.4816°
Altitude
482.974 km
Speed
7.626 km/s
True Right ascension
08h 37m 17s
True Declination
0° 00' 00"
Sunlit
Object was in daylight at TLE epoch
Visualization TLE readout
Latitude
-15.11811°
Longitude
84.57789°
Altitude
485.838 km
Speed
7.623 km/s
Apparent Right ascension
00h 14m 19s
Apparent Declination
-37° 18' 52"
Sunlit
Object is in daylight
Visualization observer readout
Local Sidereal Time
16:09:25
Azimuth
106.417° ESE
Elevation
-44.845°
Doppler factor
1
Orbital elements
Apogee altitude
485.341 km
Perigee altitude
484.731 km
Semi-major axis
6,863.173 km
Eccentricity
0.0000444
Inclination
43.0004°
RAAN
129.3221°
Arg. of periapsis
249.3506°
True anomaly
110.73456°
Mean anomaly
110.7298°
Eccentric anomaly
110.73218°
Mean motion
3.8173 °/min
BSTAR
-0.000074005
Orbital period
94.31 mins
Loading maneuver chart data...
Loading SW <> Apogee altitude chart data...
Loading historical data...
Loading historical data...
Loading historical data...
Loading historical data...
Loading historical data...
Loading historical data...
Loading historical data...

STARLINK-31865 Visibility forecast

Observer location: undefined°, undefined°

Span
Click to sort rows by Start time (UTC) header in descending order
Start Az.
Max El. time (UTC)
Max El. Az.
Max El.
End time (UTC)
End Az.
6 mins2025-05-09 09:10:20.281Z275.344° WNW2025-05-09 09:13:20.281Z213.691° SW31.04°2025-05-09 09:16:20.281Z145.014° SSE
5 mins2025-05-10 03:46:20.281Z235.93° WSW2025-05-10 03:48:20.281Z188.897° SSW42.089°2025-05-10 03:51:20.281Z76.799° E
5 mins2025-05-10 05:25:20.281Z282.99° WNW2025-05-10 05:27:20.281Z332.454° NNW38.09°2025-05-10 05:30:20.281Z68.656° E
6 mins2025-05-10 07:04:20.281Z292.704° NW2025-05-10 07:07:20.281Z57.222° ENE40.512°2025-05-10 07:10:20.281Z95.554° ESE
|